Regional Weather Roundup
Issued by NWS

Home | Current Version | Previous Version | Graphics & Text | Print | Product List | Glossary On
Versions: 1 2 3 4 5 6 7 8 9 10 11 12 13 14 15 16 17 18 19 20 21 22 23 24 25 26 27 28 29 30 31
000
ASUS45 KGTF 051610
RWRMT
MONTANA HOURLY WEATHER ROUNDUP
NATIONAL WEATHER SERVICE GREAT FALLS MT
1000 AM MDT TUE MAY 05 2015

NOTE: "FAIR" INDICATES FEW OR NO CLOUDS BELOW 12000 FEET WITH NO
SIGNIFICANT WEATHER AND/OR OBSTRUCTIONS TO VISIBILITY.

MTZ001>007-043-051700-
WEST OF THE DIVIDE

CITY           SKY/WX    TMP DP  RH WIND       PRES   REMARKS
KALISPELL      CLOUDY    57  39  51 S12       29.83S
MISSOULA       MOSUNNY   59  42  53 NW12      29.85F
BUTTE          PTSUNNY   52  30  43 E3        29.88F
DEER LODGE       N/A     55  34  44 CALM      29.90F
EUREKA           N/A     59  25  27 SW14      29.83S
HAMILTON         N/A     61  36  39 S3        29.83F
LIBBY            N/A     55  25  30 SW5       29.87S
$$

MTZ008-052>055-051700-
SOUTHWEST MONTANA

CITY           SKY/WX    TMP DP  RH WIND       PRES   REMARKS
BOZEMAN        PTSUNNY   59  41  51 NW6       29.83S
DILLON         CLOUDY    59  37  44 SW3       29.84F
$$

MTZ009-010-012-014-046-048-049-054-051700-
EAST SLOPES AND CENTRAL MONTANA

CITY           SKY/WX    TMP DP  RH WIND       PRES   REMARKS
CUT BANK       PTSUNNY   60  36  40 W26       29.77S
GREAT FALLS    SUNNY     62  36  37 NE3       29.78F
HELENA         PTSUNNY   59  33  37 VRB3      29.82F
$$

MTZ011-013-016-021-045-047-050-051-051700-
NORTH CENTRAL MONTANA

CITY           SKY/WX    TMP DP  RH WIND       PRES   REMARKS
HAVRE          MOSUNNY   64  43  46 S3        29.74F
LEWISTOWN      PTSUNNY   67  40  37 CALM      29.78S
CHINOOK          N/A     63  45  51 CALM      29.74F
FORT BENTON      N/A     64  34  32 CALM      29.78S
$$

MTZ017>020-022>042-056>058-061-062-051700-
EASTERN PLAINS

CITY           SKY/WX    TMP DP  RH WIND       PRES   REMARKS
BAKER          SUNNY     64  40  41 SE20G26   29.90F
BILLINGS       PTSUNNY   62  43  49 SW7       29.81F
GLASGOW        SUNNY     62  39  42 SE16      29.80F
JORDAN           N/A     64  41  42 SE10      29.79F
LIVINGSTON     MOSUNNY   61  38  42 VRB3      29.82F
MILES CITY     SUNNY     66  42  41 S16G23    29.82F
SIDNEY         SUNNY     66  37  34 S16       29.87F
WOLF POINT     SUNNY     65  39  38 SE8       29.83F
BIG TIMBER       N/A     61  41  48 SW3       29.83S
FORSYTH          N/A     66  43  42 SE5       29.80F
PLENTYWOOD       N/A     64  34  32 S17       29.87F
POPLAR           N/A     66  37  34 S12       29.85F
$$

REGIONAL REPORTS...DAKOTAS

CITY           SKY/WX    TMP DP  RH WIND       PRES   REMARKS
WILLISTON      SUNNY     68  33  27 S15G26    29.90F
MINOT          CLOUDY    68  32  26 S18       29.98F
DICKINSON      SUNNY     64  36  35 S25G35    29.92F
BEACH          FAIR      64  39  39 S25       29.89F
CROSBY         FAIR      66  32  28 S16G26    29.89F
WATFORD CITY   FAIR      66  34  30 S21G31    29.89F
BISMARCK       SUNNY     68  38  33 S20G30    30.04F
GRAND FORKS    PTSUNNY   68  25  19 S18G24    30.14F
FARGO          SUNNY     70  23  17 SE20      30.14F
BUFFALO SD       N/A     65  44  46 S24G31    29.86F
RAPID CITY     PTSUNNY   58  43  57 SE17      29.98S
$$

REGIONAL REPORTS...WYOMING/IDAHO/WASHINGTON

CITY           SKY/WX    TMP DP  RH WIND       PRES   REMARKS
GILLETTE       SUNNY     54  44  69 SE20G26   29.90F
SHERIDAN       SUNNY     62  46  55 VRB6      29.84F
BUFFALO WY     SUNNY     61  46  57 SE17      29.88F
CODY           MOSUNNY   61  39  44 E3        29.86S
YELLOWSTONE LA   N/A     42  31  64 CALM      30.02F
IDAHO FALLS    PTSUNNY   59  42  53 NE3       29.87S
SALMON           N/A     54  36  50 N3        29.83F
BOISE          SUNNY     59  35  40 NW14      29.86S
SPOKANE        MOSUNNY   50  30  46 SW22G28   29.93S
$$

REGIONAL REPORTS...ALBERTA

CITY           SKY/WX    TMP DP  RH WIND       PRES   REMARKS
EDMONTON       PTSUNNY   50  34  53 E10G21    29.73F
CALGARY        PTSUNNY   54  32  43 N8        29.69S
LETHBRIDGE     PTSUNNY   66  34  30 SW21      29.71S
MEDICINE HAT   PTSUNNY   63  45  51 W12       29.70
$$

REGIONAL REPORTS...SASKATCHEWAN

CITY           SKY/WX    TMP DP  RH WIND       PRES   REMARKS
SWIFT CURRENT  SUNNY     66  41  39 S14       29.73S
REGINA         PTSUNNY   61  37  41 SE23G30   29.84F
SASKATOON      MOSUNNY   57  43  58 E16       29.80F
$$



USA.gov is the U.S. government's official web portal to all federal, state and local government web resources and services.